Flag for Canada Past Weather in Happy Valley-Goose Bay, Newfoundland and Labrador, Canada — Yesterday and Last 2 Weeks

Now
59 °F

Passing clouds.


Feels Like: 59 °F
Forecast: 54 / 60 °F
Wind: 5 mph from West

Location: Goose

Current Time: Aug 25, 2016 at 1:48:03 AM

Latest Report: Aug 25, 2016 at 1:00 AM


Visibility: 15 mi

Pressure: 29.74 "Hg

Humidity: 59%

Dew Point: 45 °F

Location of Happy Valley-Goose BayLocation

Past Weather in Happy Valley-Goose Bay — Graph

°F

Happy Valley-Goose Bay Temperature Yesterday

Maximum temperature yesterday: 72 °F (at 1:00 PM)
Minimum temperature yesterday: 52 °F (at 5:00 AM)
Average temperature yesterday: 62 °F

High & Low Weather Summary for the Past Weeks

 TemperatureHumidityPressure
High82 °F (Aug 22, 4:00 PM)93% (Aug 10, 6:00 AM)30.02 "Hg (Aug 10, 6:00 AM)
Low41 °F (Aug 14, 4:00 AM)30% (Aug 17, 3:00 PM)29.44 "Hg (Aug 23, 8:00 AM)
Average62 °F63%29.81 "Hg
* Reported Aug 10 12:00 AM — Aug 25 12:00 AM, Happy Valley-Goose Bay, Weather by CustomWeather, © 2016

Note: Actual official high and low records may vary slightly from our data, if they occured in-between our weather recording intervals... More about our weather records

Advertising

Happy Valley-Goose Bay Weather History for the Previous 24 Hours

Scroll right to see more
 ConditionsComfort  
Time TempWeatherWind HumidityBarometerVisibility
12:00 AM
Thu, Aug 25
57 °FPassing clouds.No wind67%29.74 "Hg15 mi
11:00 PM
Wed, Aug 24
61 °FPassing clouds.3 mph55%29.75 "Hg15 mi
10:00 PM63 °FPassing clouds.5 mph56%29.75 "Hg15 mi
9:00 PM64 °FScattered clouds.6 mph49%29.74 "Hg15 mi
8:00 PM66 °FPartly sunny.7 mph46%29.73 "Hg15 mi
7:00 PM68 °FPartly sunny.9 mph43%29.72 "Hg15 mi
6:00 PM70 °FBroken clouds.17 mph40%29.70 "Hg15 mi
5:00 PM70 °FBroken clouds.14 mph50%29.70 "Hg15 mi
4:00 PM70 °FBroken clouds.15 mph50%29.70 "Hg15 mi
3:00 PM64 °FBroken clouds.16 mph64%29.71 "Hg15 mi
2:00 PM72 °FPartly sunny.20 mph41%29.70 "Hg15 mi
1:00 PM72 °FPartly sunny.17 mph41%29.71 "Hg15 mi
12:00 PM70 °FPartly sunny.16 mph43%29.72 "Hg15 mi
11:00 AM68 °FBroken clouds.16 mph53%29.74 "Hg15 mi
10:00 AM63 °FBroken clouds.13 mph64%29.75 "Hg15 mi
9:00 AM59 °FPartly sunny.17 mph68%29.75 "Hg15 mi
8:00 AM57 °FPartly sunny.16 mph72%29.75 "Hg15 mi
7:00 AM54 °FScattered clouds.8 mph77%29.74 "Hg15 mi
6:00 AM52 °FPassing clouds.10 mph82%29.74 "Hg15 mi
5:00 AM52 °FPassing clouds.10 mph77%29.72 "Hg15 mi
4:00 AM54 °FPassing clouds.9 mph77%29.72 "Hg15 mi
3:00 AM55 °FPassing clouds.13 mph72%29.73 "Hg15 mi
2:00 AM54 °FPassing clouds.9 mph72%29.72 "Hg15 mi
1:00 AM54 °FPassing clouds.7 mph72%29.72 "Hg15 mi
Weather by CustomWeather, © 2016

See weather overviewHow to use our weather pages